CW3467 Sant Marti de Canals ES current weather conditions

sailwx.info

Wind from 342 at 2 knots gusting 5

Air temperature 30.6° C
Dewpoint 14.2° C

Last reported at 2014-Sep-01 17:48 UTC.
Time now 2014-Sep-01 18:54 UTC

Location: N 42°14' E 000°59'.
View on Google Maps.

See reports from other nearby stations

  
Tides and Currents Weather Stations Pressure Air Temp Water Temp Dewpoint Dewpoint Depression Visibility Wind Speed Wind Dir Waves Ship Positions
date/time (UTC)wind fromknots sea level pressurealtimeterstation pressurevisibilityair tempwater tempwave heightnotes
2014-Sep-01 17:48 342 2 gusting 5 30.6
2014-Sep-01 17:32 337 0 gusting 1 31.1
2014-Sep-01 17:18 007 0 gusting 1 31.1
2014-Sep-01 17:02 269 0 gusting 2 32.2
2014-Sep-01 16:46 036 32.8
2014-Sep-01 16:32 283 32.2
2014-Sep-01 16:16 257 0 gusting 2 32.8
2014-Sep-01 16:00 150 32.8
2014-Sep-01 15:44 224 33.3
2014-Sep-01 15:28 274 0 gusting 3 32.2
2014-Sep-01 15:14 256 0 gusting 3 32.2
2014-Sep-01 14:59 093 0 gusting 1 32.2
2014-Sep-01 14:43 207 0 gusting 3 32.2
2014-Sep-01 14:28 224 0 gusting 3 32.2
2014-Sep-01 14:11 238 32.2
2014-Sep-01 13:56 257 0 gusting 2 32.2
2014-Sep-01 13:41 217 31.7
2014-Sep-01 13:25 260 0 gusting 5 31.1
2014-Sep-01 13:10 249 0 gusting 4 31.1
2014-Sep-01 12:53 110 30.6
2014-Sep-01 12:39 123 0 gusting 3 30.0
2014-Sep-01 12:23 214 1 gusting 5 29.4
2014-Sep-01 12:07 237 2 gusting 5 30.0
2014-Sep-01 11:52 231 29.4
2014-Sep-01 11:36 204 29.4
2014-Sep-01 11:21 218 0 gusting 3 28.9
2014-Sep-01 11:06 252 0 gusting 2 28.3
2014-Sep-01 10:50 226 28.3
2014-Sep-01 10:34 117 26.7
2014-Sep-01 10:19 255 26.7
2014-Sep-01 10:03 278 26.1
2014-Sep-01 09:48 136 25.6
2014-Sep-01 09:33 197 23.9
2014-Sep-01 09:17 221 23.3
2014-Sep-01 09:01 208 0 gusting 3 22.2
2014-Sep-01 08:47 223 0 gusting 3 21.1
2014-Sep-01 08:30 208 21.7
2014-Sep-01 08:15 218 0 gusting 2 21.1
2014-Sep-01 07:59 221 21.1
2014-Sep-01 07:44 225 0 gusting 1 21.1
2014-Sep-01 07:29 184 20.0
2014-Sep-01 07:13 116 17.8
2014-Sep-01 06:57 100 16.1
2014-Sep-01 06:42 100 15.6
2014-Sep-01 06:27 109 15.6
2014-Sep-01 06:11 103 15.6
2014-Sep-01 05:56 105 15.6
2014-Sep-01 05:41 122 15.6
2014-Sep-01 05:25 128 15.6
2014-Sep-01 05:09 052 15.6
2014-Sep-01 04:53 027 15.6
2014-Sep-01 04:38 110 0 gusting 1 16.1
2014-Sep-01 04:25 095 16.1
2014-Sep-01 04:07 075 16.1
2014-Sep-01 03:52 049 16.1
2014-Sep-01 03:36 016 0 gusting 1 16.7
2014-Sep-01 03:21 123 1 gusting 3 16.7
2014-Sep-01 03:06 136 16.7
2014-Sep-01 02:50 046 17.2
2014-Sep-01 02:34 125 0 gusting 2 17.2
2014-Sep-01 02:20 223 17.8
2014-Sep-01 02:03 113 1 gusting 2 17.8
2014-Sep-01 01:49 113 17.8
2014-Sep-01 01:33 068 17.8
2014-Sep-01 01:17 033 18.3
2014-Sep-01 01:02 092 18.9
2014-Sep-01 00:46 117 2 gusting 4 18.9
2014-Sep-01 00:31 114 1 gusting 3 18.9
2014-Sep-01 00:15 337 0 gusting 3 18.9
2014-Aug-31 23:59 069 19.4
2014-Aug-31 23:44 098 2 gusting 3 20.0
2014-Aug-31 23:30 128 20.0
2014-Aug-31 23:13 131 20.0
2014-Aug-31 22:58 105 20.0
2014-Aug-31 22:42 108 1 gusting 3 20.0
2014-Aug-31 22:28 133 20.6
2014-Aug-31 22:11 281 0 gusting 3 21.1
2014-Aug-31 21:56 110 0 gusting 6 21.1
2014-Aug-31 21:41 015 21.7
2014-Aug-31 21:25 319 21.7
2014-Aug-31 21:10 122 22.2
2014-Aug-31 20:55 056 22.8
2014-Aug-31 20:39 135 1 gusting 4 22.8
2014-Aug-31 20:23 041 23.9
2014-Aug-31 20:07 281 23.9
2014-Aug-31 19:52 129 0 gusting 5 24.4
2014-Aug-31 19:37 145 5 gusting 6 24.4
2014-Aug-31 19:21 135 1 gusting 4 24.4
2014-Aug-31 19:06 141 2 gusting 3 24.4
2014-Aug-31 18:50 145 2 gusting 4 25.0
2014-Aug-31 18:35 219 0 gusting 3 25.6
2014-Aug-31 18:19 252 26.1
2014-Aug-31 18:04 264 0 gusting 5 26.7
2014-Aug-31 17:48 327 1 gusting 3 27.8
2014-Aug-31 17:33 260 0 gusting 1 28.3
2014-Aug-31 17:17 001 0 gusting 3 27.8
2014-Aug-31 17:02 240 1 gusting 6 27.2
2014-Aug-31 16:46 246 2 gusting 4 27.8
2014-Aug-31 16:32 236 0 gusting 2 28.9
2014-Aug-31 16:16 216 1 gusting 5 29.4
2014-Aug-31 16:00 212 2 gusting 8 29.4
2014-Aug-31 15:45 233 2 gusting 5 29.4
2014-Aug-31 15:29 232 0 gusting 6 28.9
2014-Aug-31 15:15 163 3 gusting 6 28.9
2014-Aug-31 14:58 205 2 gusting 6 29.4
2014-Aug-31 14:43 257 1 gusting 6 30.0
2014-Aug-31 14:27 204 1 gusting 7 30.0
2014-Aug-31 14:13 236 0 gusting 6 29.4
2014-Aug-31 13:56 150 1 gusting 7 28.9
2014-Aug-31 13:41 173 0 gusting 8 28.9
2014-Aug-31 13:25 226 1 gusting 7 28.9
2014-Aug-31 13:11 219 3 gusting 6 27.8
2014-Aug-31 12:54 287 0 gusting 6 28.3
2014-Aug-31 12:39 174 1 gusting 5 28.3
2014-Aug-31 12:23 319 0 gusting 5 28.3
2014-Aug-31 12:09 357 0 gusting 5 28.3
2014-Aug-31 11:52 113 3 gusting 6 27.8
2014-Aug-31 11:37 329 3 gusting 6 27.8
2014-Aug-31 11:21 212 0 gusting 5 26.7
2014-Aug-31 11:06 222 0 gusting 3 26.7
2014-Aug-31 10:50 216 0 gusting 3 26.1
2014-Aug-31 10:36 264 0 gusting 5 25.6
2014-Aug-31 10:19 249 25.6
2014-Aug-31 10:04 152 0 gusting 4 25.0
2014-Aug-31 09:48 150 1 gusting 3 25.0
2014-Aug-31 09:33 222 24.4
2014-Aug-31 09:17 271 0 gusting 3 23.3
2014-Aug-31 09:03 136 23.9
2014-Aug-31 08:48 287 22.8
2014-Aug-31 08:31 225 22.2
2014-Aug-31 08:15 154 20.6
2014-Aug-31 08:00 123 0 gusting 1 18.9
2014-Aug-31 07:45 150 18.9
2014-Aug-31 07:29 229 0 gusting 2 18.3
2014-Aug-31 07:13 191 0 gusting 3 17.8
2014-Aug-31 06:58 218 17.8
2014-Aug-31 06:43 332 17.2
2014-Aug-31 06:27 128 16.7
2014-Aug-31 06:12 148 16.7
2014-Aug-31 05:57 126 16.7
2014-Aug-31 05:41 148 16.7
2014-Aug-31 05:26 212 16.7
2014-Aug-31 05:11 228 16.7
2014-Aug-31 04:55 113 16.7
2014-Aug-31 04:39 153 16.7
2014-Aug-31 04:23 153 16.7
2014-Aug-31 04:09 159 16.7
2014-Aug-31 03:52 115 16.7
2014-Aug-31 03:37 115 16.1
2014-Aug-31 03:21 023 16.1
2014-Aug-31 03:06 129 16.1
2014-Aug-31 02:50 094 16.1
2014-Aug-31 02:36 115 16.7
2014-Aug-31 02:19 142 0 gusting 1 16.7
2014-Aug-31 02:04 018 16.7
2014-Aug-31 01:48 124 17.2
2014-Aug-31 01:33 123 2 gusting 3 16.7
2014-Aug-31 01:19 113 1 gusting 4 16.7
2014-Aug-31 01:02 103 17.2
2014-Aug-31 00:47 142 1 gusting 2 17.2
2014-Aug-31 00:32 137 17.2
2014-Aug-31 00:16 117 17.8
2014-Aug-31 00:01 113 1 gusting 1 17.8
2014-Aug-30 23:45 115 17.8
2014-Aug-30 23:30 110 18.3
2014-Aug-30 23:14 100 0 gusting 2 18.9
2014-Aug-30 22:58 119 1 gusting 3 18.9
2014-Aug-30 22:44 138 18.9
2014-Aug-30 22:27 156 0 gusting 3 19.4
2014-Aug-30 22:12 159 2 gusting 5 20.0
2014-Aug-30 21:57 121 0 gusting 3 20.0
2014-Aug-30 21:41 309 2 gusting 5 20.6
2014-Aug-30 21:27 041 1 gusting 6 20.6
2014-Aug-30 21:10 022 3 gusting 7 21.1
2014-Aug-30 20:55 010 5 gusting 9 21.1
2014-Aug-30 20:39 036 4 gusting 8 21.1
2014-Aug-30 20:24 072 20.6
2014-Aug-30 20:09 287 20.6
2014-Aug-30 19:53 117 21.1
2014-Aug-30 19:37 097 0 gusting 2 21.1
2014-Aug-30 19:22 122 1 gusting 3 21.1
2014-Aug-30 19:06 215 21.1
2014-Aug-30 18:52 257 0 gusting 7 22.2
2014-Aug-30 18:36 108 0 gusting 7 22.8
2014-Aug-30 18:20 047 6 gusting 12 22.2
2014-Aug-30 18:04 079 6 gusting 9 22.8